When you browse on this site, cookies collect data to enhance your experience and personalize the content and advertising you see.
Visit our Privacy Policy to learn more. By continuing to use the site, you agree to this use of cookies and data.
  • In Schweiz
  • Länderverzeichnis
  • Für 7 Tage
  • Wassertemperatur
  • Wetterkarte
  • Widgets
  • user-avatar
    Anmelden

    Stündliche Wetter Tyrlova Balka

    Heute, 22 Januar, Mittwoch

    Zeit Temperatur Niederschläge Wind Luftdruck Luftfeuchtigkeit
    00:00 -1°C° 0 mm 5 m/S 754 mmHg 75%
    01:00 -1°C° 0 mm 5 m/S 753 mmHg 75%
    02:00 -1°C° 0 mm 5 m/S 753 mmHg 75%
    03:00 -1°C° 0 mm 5 m/S 753 mmHg 75%
    04:00 -1°C° 0 mm 5 m/S 752 mmHg 75%
    05:00 0°C° 0 mm 5 m/S 752 mmHg 76%
    06:00 -1°C° 0 mm 5 m/S 751 mmHg 77%
    07:00 -1°C° 0 mm 5 m/S 751 mmHg 78%
    08:00 -1°C° 0 mm 5 m/S 750 mmHg 80%
    09:00 -1°C° 0 mm 6 m/S 750 mmHg 78%
    10:00 -1°C° 0 mm 6 m/S 749 mmHg 75%
    11:00 0°C° 0 mm 7 m/S 749 mmHg 73%
    12:00 0°C° 0 mm 7 m/S 748 mmHg 71%
    13:00 +1°C° 0 mm 8 m/S 748 mmHg 68%
    14:00 +1°C° 0 mm 8 m/S 747 mmHg 65%
    15:00 +1°C° 0 mm 8 m/S 746 mmHg 66%
    16:00 0°C° 0 mm 8 m/S 746 mmHg 67%
    17:00 0°C° 0 mm 8 m/S 745 mmHg 67%
    18:00 0°C° 0 mm 8 m/S 745 mmHg 71%
    19:00 0°C° 0 mm 8 m/S 744 mmHg 74%
    20:00 -1°C° 0 mm 8 m/S 744 mmHg 77%
    21:00 -1°C° 0 mm 8 m/S 744 mmHg 79%
    22:00 -1°C° 0 mm 8 m/S 744 mmHg 80%
    23:00 -1°C° 0 mm 8 m/S 743 mmHg 81%

    Morgen, 23 Januar, Donnerstag

    Zeit Temperatur Niederschläge Wind Luftdruck Luftfeuchtigkeit
    00:00 -1°C° 0 mm 7 m/S 744 mmHg 81%
    01:00 -2°C° 0 mm 7 m/S 745 mmHg 81%
    02:00 -2°C° 0 mm 6 m/S 745 mmHg 81%
    03:00 -3°C° 0 mm 7 m/S 745 mmHg 78%
    04:00 -3°C° 0 mm 7 m/S 746 mmHg 74%
    05:00 -5°C° 0 mm 8 m/S 746 mmHg 71%
    06:00 -5°C° 0 mm 8 m/S 747 mmHg 73%
    07:00 -4°C° 0 mm 7 m/S 748 mmHg 74%
    08:00 -4°C° 0 mm 7 m/S 748 mmHg 76%
    09:00 -4°C° 0 mm 8 m/S 749 mmHg 72%
    10:00 -4°C° 0 mm 8 m/S 749 mmHg 68%
    11:00 -2°C° 0 mm 8 m/S 749 mmHg 64%
    12:00 -3°C° 0.1 mm 9 m/S 750 mmHg 62%
    13:00 -3°C° 0.1 mm 9 m/S 750 mmHg 60%
    14:00 -3°C° 0.1 mm 9 m/S 750 mmHg 58%
    15:00 -4°C° 0 mm 8 m/S 751 mmHg 59%
    16:00 -4°C° 0 mm 7 m/S 752 mmHg 59%
    17:00 -4°C° 0 mm 5 m/S 752 mmHg 59%
    18:00 -5°C° 0 mm 5 m/S 753 mmHg 61%
    19:00 -5°C° 0 mm 5 m/S 753 mmHg 63%
    20:00 -5°C° 0 mm 5 m/S 754 mmHg 65%
    21:00 -5°C° 0 mm 5 m/S 754 mmHg 69%
    22:00 -4°C° 0 mm 4 m/S 755 mmHg 74%
    23:00 -4°C° 0 mm 4 m/S 755 mmHg 78%

    übermorgen, 24 Januar, Freitag

    Zeit Temperatur Niederschläge Wind Luftdruck Luftfeuchtigkeit
    00:00 -4°C° 0 mm 4 m/S 755 mmHg 80%
    01:00 -4°C° 0 mm 4 m/S 756 mmHg 81%
    02:00 -4°C° 0 mm 4 m/S 756 mmHg 83%
    03:00 -4°C° 0 mm 4 m/S 756 mmHg 84%
    04:00 -4°C° 0 mm 4 m/S 756 mmHg 85%
    05:00 -5°C° 0 mm 3 m/S 756 mmHg 87%
    06:00 -5°C° 0 mm 3 m/S 756 mmHg 87%
    07:00 -5°C° 0 mm 3 m/S 756 mmHg 88%
    08:00 -5°C° 0 mm 3 m/S 756 mmHg 89%
    09:00 -2°C° 0 mm 3 m/S 756 mmHg 81%
    10:00 -2°C° 0 mm 4 m/S 756 mmHg 74%
    11:00 -1°C° 0 mm 4 m/S 756 mmHg 66%
    12:00 0°C° 0 mm 5 m/S 756 mmHg 64%
    13:00 0°C° 0 mm 5 m/S 755 mmHg 62%
    14:00 +1°C° 0 mm 6 m/S 755 mmHg 59%
    15:00 0°C° 0 mm 5 m/S 755 mmHg 63%
    16:00 -1°C° 0 mm 5 m/S 754 mmHg 67%
    17:00 -2°C° 0 mm 4 m/S 754 mmHg 70%
    18:00 -2°C° 0 mm 4 m/S 754 mmHg 71%
    19:00 -2°C° 0 mm 4 m/S 754 mmHg 72%
    20:00 -3°C° 0 mm 4 m/S 755 mmHg 73%
    21:00 -3°C° 0 mm 4 m/S 754 mmHg 73%
    22:00 -3°C° 0 mm 4 m/S 754 mmHg 72%
    23:00 -3°C° 0 mm 4 m/S 754 mmHg 72%

    25 Januar, Samstag

    Zeit Temperatur Niederschläge Wind Luftdruck Luftfeuchtigkeit
    00:00 -3°C° 0 mm 4 m/S 754 mmHg 71%
    01:00 -4°C° 0 mm 4 m/S 753 mmHg 71%
    02:00 -4°C° 0 mm 4 m/S 753 mmHg 70%
    03:00 -4°C° 0 mm 4 m/S 753 mmHg 72%
    04:00 -4°C° 0 mm 4 m/S 752 mmHg 73%
    05:00 -4°C° 0 mm 4 m/S 752 mmHg 74%
    06:00 -4°C° 0 mm 4 m/S 752 mmHg 74%
    07:00 -4°C° 0 mm 3 m/S 752 mmHg 73%
    08:00 -4°C° 0 mm 3 m/S 752 mmHg 73%
    09:00 -1°C° 0 mm 3 m/S 752 mmHg 66%
    10:00 -1°C° 0 mm 4 m/S 752 mmHg 60%
    11:00 +1°C° 0 mm 4 m/S 751 mmHg 53%
    12:00 +1°C° 0 mm 4 m/S 751 mmHg 51%
    13:00 +3°C° 0 mm 4 m/S 751 mmHg 50%
    14:00 +3°C° 0 mm 4 m/S 750 mmHg 48%
    15:00 +2°C° 0 mm 3 m/S 750 mmHg 53%
    16:00 +1°C° 0 mm 3 m/S 750 mmHg 58%
    17:00 -1°C° 0 mm 3 m/S 750 mmHg 63%
    18:00 -1°C° 0 mm 3 m/S 750 mmHg 64%
    19:00 -1°C° 0 mm 3 m/S 750 mmHg 65%
    20:00 -2°C° 0 mm 3 m/S 750 mmHg 66%
    21:00 -2°C° 0 mm 3 m/S 750 mmHg 69%
    22:00 -2°C° 0 mm 3 m/S 750 mmHg 71%
    23:00 -2°C° 0 mm 3 m/S 750 mmHg 74%

    26 Januar, Sonntag

    Zeit Temperatur Niederschläge Wind Luftdruck Luftfeuchtigkeit
    00:00 -2°C° 0 mm 3 m/S 750 mmHg 77%
    01:00 -2°C° 0 mm 3 m/S 751 mmHg 79%
    02:00 -2°C° 0 mm 3 m/S 751 mmHg 82%
    03:00 -2°C° 0 mm 3 m/S 751 mmHg 83%
    04:00 -1°C° 0 mm 2 m/S 751 mmHg 83%
    05:00 -1°C° 0 mm 2 m/S 751 mmHg 84%
    06:00 -1°C° 0 mm 2 m/S 752 mmHg 84%
    07:00 -1°C° 0 mm 2 m/S 752 mmHg 85%
    08:00 +1°C° 0 mm 2 m/S 752 mmHg 85%
    09:00 +1°C° 0 mm 2 m/S 753 mmHg 85%
    10:00 +2°C° 0 mm 2 m/S 753 mmHg 84%
    11:00 +2°C° 0 mm 2 m/S 754 mmHg 83%
    12:00 +3°C° 0 mm 2 m/S 753 mmHg 79%
    13:00 +3°C° 0 mm 2 m/S 753 mmHg 75%
    14:00 +4°C° 0 mm 2 m/S 753 mmHg 71%
    15:00 +3°C° 0 mm 2 m/S 754 mmHg 75%
    16:00 +4°C° 0 mm 1 m/S 754 mmHg 78%
    17:00 +3°C° 0 mm 1 m/S 754 mmHg 81%
    18:00 +3°C° 0 mm 1 m/S 754 mmHg 81%
    19:00 +2°C° 0 mm 1 m/S 755 mmHg 80%
    20:00 +2°C° 0 mm 1 m/S 755 mmHg 80%
    21:00 +2°C° 0 mm 1 m/S 755 mmHg 80%
    22:00 +2°C° 0 mm 1 m/S 755 mmHg 80%
    23:00 +2°C° 0 mm 1 m/S 755 mmHg 80%

    27 Januar, Montag

    Zeit Temperatur Niederschläge Wind Luftdruck Luftfeuchtigkeit
    00:00 +1°C° 0 mm 1 m/S 755 mmHg 83%
    01:00 +1°C° 0 mm 1 m/S 755 mmHg 85%
    02:00 -1°C° 0 mm 2 m/S 755 mmHg 87%
    03:00 -1°C° 0 mm 2 m/S 755 mmHg 89%
    04:00 -2°C° 0 mm 2 m/S 755 mmHg 91%
    05:00 -2°C° 0 mm 2 m/S 755 mmHg 93%
    06:00 -2°C° 0 mm 2 m/S 755 mmHg 93%
    07:00 -2°C° 0 mm 2 m/S 755 mmHg 94%
    08:00 -2°C° 0 mm 3 m/S 755 mmHg 95%
    09:00 -1°C° 0 mm 3 m/S 755 mmHg 89%
    10:00 +1°C° 0 mm 3 m/S 755 mmHg 84%
    11:00 +1°C° 0 mm 4 m/S 755 mmHg 79%
    12:00 +2°C° 0 mm 3 m/S 755 mmHg 77%
    13:00 +3°C° 0 mm 3 m/S 755 mmHg 74%
    14:00 +4°C° 0 mm 3 m/S 754 mmHg 72%
    15:00 +3°C° 0 mm 3 m/S 754 mmHg 75%
    16:00 +2°C° 0 mm 3 m/S 754 mmHg 78%
    17:00 +2°C° 0 mm 3 m/S 754 mmHg 82%
    18:00 +2°C° 0 mm 3 m/S 754 mmHg 82%
    19:00 +1°C° 0 mm 3 m/S 754 mmHg 83%
    20:00 +1°C° 0 mm 3 m/S 754 mmHg 83%
    21:00 +1°C° 0 mm 3 m/S 754 mmHg 84%
    22:00 +2°C° 0 mm 2 m/S 754 mmHg 86%
    23:00 +2°C° 0 mm 2 m/S 754 mmHg 87%
    Mehr zeigen